Location: Clinton NY
(43.0598°N, 75.3602°W)
Time: 13:11:03
(UTC-04:00)

ISS - All Passes

Search period start: 01 October 2016 00:00
Search period end: 11 October 2016 00:00
Orbit: 400 x 409 km, 51.6° (Epoch: 02 October)

Date Brightness Start Highest point End Pass type
(mag) Time Alt. Az. Time Alt. Az. Time Alt. Az.
01 Oct - 01:25:55 10° NW 01:29:11 64° NNE 01:32:27 10° ESE night (unlit)
01 Oct - 03:03:10 10° W 03:05:21 17° SW 03:07:32 10° S night (unlit)
01 Oct - 18:08:52 10° SE 18:09:45 11° SE 18:10:38 10° ESE daylight
01 Oct - 19:42:30 10° SW 19:45:45 87° SSE 19:49:01 10° ENE visible
01 Oct - 21:19:51 10° WNW 21:22:33 23° NNW 21:25:16 10° NE visible
01 Oct - 22:57:28 10° NW 22:59:51 18° N 23:02:14 10° NE night (unlit)
02 Oct - 00:33:51 10° NW 00:36:58 40° NNE 00:40:05 10° E night (unlit)
02 Oct - 02:10:28 10° WNW 02:13:23 30° SW 02:16:18 10° SSE night (unlit)
02 Oct - 18:50:32 10° SW 18:53:39 46° SE 18:56:48 10° ENE daylight
02 Oct - 20:27:17 10° W 20:30:14 30° NNW 20:33:11 10° NE visible
02 Oct - 22:05:06 10° NW 22:07:26 18° N 22:09:46 10° NE visible
02 Oct - 23:41:47 10° NW 23:44:41 28° NNE 23:47:34 10° E night (unlit)
03 Oct - 01:18:06 10° WNW 01:21:20 56° SW 01:24:33 10° SE night (unlit)
03 Oct - 17:58:54 10° SSW 18:01:37 25° SE 18:04:21 10° E daylight
03 Oct - 19:34:48 10° WSW 19:37:57 45° NNW 19:41:07 10° NE visible
03 Oct - 21:12:36 10° NW 21:15:01 19° N 21:17:27 10° NE visible
03 Oct - 22:49:41 10° NW 22:52:19 22° NNE 22:54:58 10° ENE night (unlit)
04 Oct - 00:25:55 10° NW 00:29:12 79° NNE 00:32:29 10° ESE night (unlit)
04 Oct - 02:03:36 10° W 02:05:16 13° SW 02:06:57 10° SSW night (unlit)
04 Oct - 17:07:55 10° SSE 17:09:39 14° SE 17:11:22 10° E daylight
04 Oct - 18:42:29 10° WSW 18:45:43 76° NNW 18:48:59 10° NE daylight
04 Oct - 20:20:00 10° WNW 20:22:37 22° NNW 20:25:14 10° NE visible
04 Oct - 21:57:28 10° NW 21:59:55 19° N 22:02:21 10° NE visible
04 Oct - 23:33:47 10° NW 23:36:58 46° NNE 23:40:09 10° ESE night (unlit)
05 Oct - 01:10:35 10° W 01:13:18 24° SW 01:16:01 10° SSE night (unlit)
05 Oct - 17:50:22 10° SW 17:53:34 59° SE 17:56:47 10° ENE daylight
05 Oct - 19:27:23 10° W 19:30:14 27° NNW 19:33:06 10° NE visible
05 Oct - 21:05:08 10° NW 21:07:28 18° N 21:09:48 10° NE visible
05 Oct - 22:41:42 10° NW 22:44:40 31° NNE 22:47:39 10° E night (unlit)
06 Oct - 00:18:05 10° WNW 00:21:14 44° SW 00:24:22 10° SE night (unlit)
06 Oct - 16:58:33 10° SSW 17:01:28 31° SE 17:04:23 10° ENE daylight
06 Oct - 18:34:49 10° W 18:37:54 38° NNW 18:40:59 10° NE daylight
06 Oct - 20:12:39 10° NW 20:15:01 18° N 20:17:23 10° NE visible
06 Oct - 21:49:34 10° NW 21:52:17 24° NNE 21:55:01 10° ENE visible
06 Oct - 23:25:48 10° WNW 23:29:06 84° SSW 23:32:22 10° SE night (unlit)
07 Oct - 01:04:22 10° WSW 01:05:04 11° SW 01:05:46 10° SW night (unlit)
07 Oct - 16:07:14 10° S 16:09:26 17° SE 16:11:38 10° E daylight
07 Oct - 17:42:23 10° WSW 17:45:36 62° NNW 17:48:50 10° NE daylight
07 Oct - 19:20:02 10° WNW 19:22:33 20° N 19:25:06 10° NE visible
07 Oct - 20:57:22 10° NW 20:59:52 20° N 21:02:22 10° ENE visible
07 Oct - 22:33:37 10° NW 22:36:52 55° NNE 22:40:04 10° ESE night (unlit)
08 Oct - 00:10:39 10° W 00:13:05 19° SW 00:15:31 10° S night (unlit)
08 Oct - 16:50:08 10° SW 16:53:22 74° SE 16:56:38 10° ENE daylight
08 Oct - 18:27:21 10° WNW 18:30:07 25° NNW 18:32:53 10° NE daylight
08 Oct - 20:05:03 10° NW 20:07:23 18° N 20:09:44 10° NE visible
08 Oct - 21:41:29 10° NW 21:44:32 35° NNE 21:47:35 10° E visible
08 Oct - 23:17:59 10° WNW 23:21:01 35° SW 23:24:02 10° SSE night (unlit)
09 Oct - 15:58:10 10° SSW 16:01:12 39° SE 16:04:16 10° ENE daylight
09 Oct - 17:34:43 10° W 17:37:43 33° NNW 17:40:44 10° NE daylight
09 Oct - 19:12:34 10° NW 19:14:53 18° N 19:17:13 10° NE visible
09 Oct - 20:49:20 10° NW 20:52:09 26° NNE 20:54:57 10° ENE visible
09 Oct - 22:25:36 10° WNW 22:28:51 68° SW 22:32:06 10° SE night (unlit)
10 Oct - 15:06:35 10° S 15:09:06 21° SE 15:11:39 10° E daylight
10 Oct - 16:42:12 10° WSW 16:45:23 51° NNW 16:48:34 10° NE daylight
10 Oct - 18:19:56 10° WNW 18:22:23 19° N 18:24:51 10° NE daylight
10 Oct - 19:57:07 10° NW 19:59:41 21° NNE 20:02:16 10° ENE visible
10 Oct - 21:33:21 10° NW 21:36:37 67° NNE 21:39:51 10° ESE visible
10 Oct - 23:10:41 10° W 23:12:45 16° SW 23:14:48 10° S night (unlit)
